{"data":{"norad_id":68016,"epoch":"2026-05-25T03:04:31.060992Z","epoch_age_seconds":57779,"freshness":"FRESH","line1":"1 68016U 26040B   26145.12813728  .00018596  00000+0  57682-3 0  9992","line2":"2 68016  97.2846  94.0862 0001254 101.4634 258.6750 15.33450330 13171","mean_motion":15.3345033,"eccentricity":0.0001254,"inclination_deg":97.2846,"raan_deg":94.0862,"arg_perigee_deg":101.4634,"mean_anomaly_deg":258.675,"bstar":0.00057682,"rev_number":1317,"period_min":93.905878255607,"perigee_km":464.66912068879,"apogee_km":466.38551169929,"semimajor_km":6843.664316194,"source":"CELESTRAK","updated_at":"2026-05-25T13:38:21.804183Z"}}